FW1492 Weather Reports


time (UTC)temp
C
wind
direction
speed
KPH
gust
KPH
rain 1hr
cm
rain 24hr
cm
rain mn
cm
humidity
%
barometer
mb
20260903124529 18 285 0.0 6.4 0.00 1.57 1.42 100 1016.0
20260903123034 18 283 0.0 4.8 0.00 1.57 1.42 100 1016.3
20260903121528 18 289 0.0 4.8 0.00 1.57 1.42 100 1015.9
20260903120027 18 266 0.0 9.7 0.00 1.57 1.42 100 1016.1
20260903114526 17 264 1.6 9.7 0.00 1.57 1.42 100 1016.2
20260903113029 17 280 0.0 8.0 0.00 1.57 1.42 100 1016.1
20260903111535 17 234 0.0 6.4 0.00 1.57 1.42 100 1016.5
20260903110025 17 271 0.0 4.8 0.00 1.57 1.42 100 1016.3
20260903104524 17 303 1.6 6.4 0.00 1.57 1.42 100 1016.7
20260903103023 17 268 0.0 6.4 0.00 1.57 1.42 100 1016.9
20260903101534 17 291 0.0 6.4 0.00 1.57 1.42 100 1016.7
20260903100021 17 296 0.0 3.2 0.00 1.57 1.42 100 1016.7
20260903094522 17 302 0.0 4.8 0.00 1.57 1.42 100 1016.5
20260903093022 17 77 0.0 0.0 0.00 1.57 1.42 100 1016.2
20260903091521 17 164 0.0 1.6 0.03 1.57 1.42 100 1016.3
20260903090019 17 309 0.0 4.8 0.03 1.57 1.42 100 1016.5
20260903084521 17 8 0.0 3.2 0.08 1.57 1.42 100 1016.5
20260903083033 17 23 0.0 1.6 0.08 1.57 1.42 100 1016.5
20260903081529 17 212 0.0 1.6 0.05 1.55 1.40 100 1015.7
20260903080047 18 243 0.0 4.8 0.05 1.55 1.40 100 1015.4
20260903074513 18 271 0.0 6.4 0.03 1.50 1.35 100 1017.0
20260903073018 18 277 0.0 3.2 0.05 1.50 1.35 100 1017.3
20260903071512 18 51 0.0 1.6 0.05 1.50 1.35 100 1017.1
20260903070011 18 219 0.0 0.0 0.08 1.50 1.35 100 1016.8
20260903064510 17 198 0.0 0.0 0.10 1.45 1.32 100 1016.7
20260903063008 17 174 0.0 0.0 0.08 1.42 1.30 100 1016.8
20260903061505 17 231 0.0 1.6 0.10 1.42 1.30 100 1017.5
20260903060003 17 242 0.0 0.0 0.08 1.42 1.27 100 1017.9
20260903054501 17 248 0.0 0.0 0.13 1.37 1.22 100 1018.4
20260903053059 17 153 0.0 0.0 0.30 1.37 1.22 100 1018.6
20260903051558 17 153 0.0 0.0 0.51 1.35 1.19 100 1018.6
20260903050118 17 146 0.0 3.2 1.19 1.35 1.19 100 1018.4
20260903044553 17 23 0.0 0.0 1.17 1.24 1.09 100 1019.3
20260903043049 17 21 0.0 1.6 0.97 1.04 0.89 100 1020.1
20260903041552 17 32 4.8 16.1 0.76 0.84 0.69 100 1021.5
20260903040049 17 164 0.0 0.0 0.08 0.15 0.00 100 1020.7
20260903034543 17 164 0.0 0.0 0.00 0.08 0.08 100 1020.2
20260903033042 17 162 0.0 3.2 0.00 0.08 0.08 100 1019.5
20260903031541 17 153 0.0 3.2 0.00 0.08 0.08 100 1019.2
20260903030042 17 329 0.0 1.6 0.00 0.08 0.08 100 1019.5
20260903024540 17 146 0.0 3.2 0.00 0.08 0.08 100 1019.5
20260903023043 17 152 0.0 1.6 0.00 0.08 0.08 100 1019.8
20260903021539 17 150 0.0 3.2 0.00 0.08 0.08 100 1019.5
20260903020044 17 163 0.0 4.8 0.00 0.08 0.08 100 1019.8
20260903014548 17 152 0.0 3.2 0.00 0.08 0.08 100 1020.2
20260903013037 17 160 0.0 4.8 0.00 0.08 0.08 100 1019.6
20260903011554 17 151 0.0 4.8 0.00 0.08 0.08 100 1019.7
20260903010038 17 157 0.0 3.2 0.00 0.08 0.08 100 1019.8
20260903004536 16 158 0.0 4.8 0.00 0.08 0.08 100 1020.1
20260903003033 17 155 0.0 1.6 0.00 0.08 0.08 100 1019.7
20260903001535 17 144 0.0 4.8 0.00 0.08 0.08 100 1019.9
20260903000033 17 154 0.0 4.8 0.00 0.08 0.08 100 1019.6
20260902234538 17 162 0.0 1.6 0.00 0.08 0.08 100 1019.5
20260902233031 17 155 0.0 3.2 0.00 0.08 0.08 100 1019.4
20260902231546 17 155 0.0 3.2 0.00 0.08 0.08 100 1019.4
20260902230033 17 164 0.0 3.2 0.00 0.08 0.08 100 1019.8
20260902224529 17 153 0.0 3.2 0.00 0.08 0.08 100 1019.5
20260902223029 17 174 1.6 4.8 0.00 0.08 0.08 100 1019.6
20260902221528 17 171 0.0 3.2 0.00 0.08 0.08 100 1020.0
20260902220028 17 147 0.0 4.8 0.00 0.08 0.08 100 1019.9
20260902214530 17 179 0.0 3.2 0.00 0.15 0.08 100 1020.0
20260902213026 17 153 0.0 1.6 0.00 0.15 0.08 100 1020.0
20260902211531 17 149 0.0 3.2 0.00 0.15 0.08 100 1020.0
20260902210026 17 149 0.0 0.0 0.00 0.15 0.08 100 1020.2
20260902204525 17 153 0.0 0.0 0.00 0.15 0.08 100 1020.1
20260902203024 17 157 0.0 0.0 0.00 0.15 0.08 100 1020.3
20260902201625 17 153 0.0 3.2 0.00 0.15 0.08 100 1020.0
20260902200022 17 161 0.0 3.2 0.00 0.15 0.08 100 1019.8
20260902194523 17 153 0.0 1.6 0.00 0.15 0.08 100 1019.9
20260902193021 17 245 0.0 1.6 0.03 0.15 0.08 100 1020.2
20260902191528 17 288 0.0 0.0 0.05 0.15 0.08 100 1020.5
20260902190018 17 292 0.0 0.0 0.05 0.15 0.08 100 1020.8
20260902184518 16 292 0.0 0.0 0.05 0.15 0.08 100 1020.9
20260902183021 16 292 0.0 1.6 0.03 0.13 0.05 100 1021.1
20260902181516 16 323 0.0 3.2 0.03 0.10 0.03 100 1021.6
20260902180015 16 141 0.0 0.0 0.03 0.10 0.03 100 1021.0
20260902174517 16 141 0.0 1.6 0.03 0.10 0.03 100 1021.1
20260902173017 16 141 0.0 0.0 0.03 0.10 0.03 100 1020.9
20260902171514 16 153 0.0 0.0 0.00 0.08 0.00 100 1020.7
20260902170015 16 163 0.0 1.6 0.00 0.08 0.00 100 1021.0
20260902164512 16 162 0.0 1.6 0.00 0.08 0.00 100 1021.0
20260902163012 16 158 0.0 3.2 0.00 0.08 0.00 100 1020.8
20260902161518 16 150 0.0 1.6 0.00 0.08 0.00 100 1021.1
20260902160012 16 152 0.0 0.0 0.00 0.08 0.00 100 1021.4
20260902154523 16 152 0.0 1.6 0.00 0.13 0.00 100 1021.2
20260902153010 16 200 0.0 0.0 0.00 0.13 0.00 100 1021.0
20260902151510 16 200 0.0 0.0 0.00 0.13 0.00 100 1021.3
20260902150009 16 252 0.0 0.0 0.00 0.13 0.00 100 1021.4
20260902144525 16 255 0.0 1.6 0.00 0.46 0.00 100 1021.7
20260902143006 16 191 0.0 1.6 0.00 0.46 0.00 100 1021.3
20260902141510 16 142 0.0 3.2 0.00 0.46 0.00 100 1020.9
20260902140010 16 149 0.0 1.6 0.00 0.46 0.00 100 1020.8
20260902134511 16 146 0.0 3.2 0.00 0.48 0.00 100 1021.1
20260902133004 16 163 0.0 1.6 0.00 0.48 0.00 100 1021.2
20260902131501 16 150 0.0 3.2 0.00 0.48 0.00 100 1020.9
20260902130001 16 154 0.0 0.0 0.00 0.48 0.00 100 1020.8